Regional Weather Roundup
Issued by NWS Upton, NY

Current Version | Previous Version | Text Only | Print | Product List | Glossary On
Versions: 1 2 3 4 5 6 7 8 9 10 11 12 13 14 15 16 17 18 19 20 21 22 23 24 25 26 27 28 29 30 31 32 33 34 35 36 37 38 39 40 41 42 43 44 45 46 47 48 49 50
821 ASUS41 KOKX 241505 RWROKX Regional Weather Roundup National Weather Service New York NY 1100 AM EDT TUE APR 24 2018 Note: "FAIR" indicates few or no clouds below 12,000 feet with no significant weather and/or obstructions to visibility. NYZ071-072-176-178-NJZ106-104-241600- New York City Metro Area CITY SKY/WX TMP DP RH WIND PRES REMARKS Central Park FAIR 62 35 36 E5 30.41F Bronx Bot Gard N/A 61 34 36 SE7 30.40F Bronx Lehman C N/A 59 32 36 S6 N/A LaGuardia Arpt PTSUNNY 61 33 35 SE14 30.39F Queens College N/A 57 36 44 S10 N/A Kennedy Intl PTSUNNY 58 44 60 SE15 30.41F Breezy Point N/A 52 N/A N/A SE6 N/A Brooklyn Coll N/A 57 39 51 SE12 N/A Staten Island N/A 59 39 47 SE7 N/A Newark/Liberty PTSUNNY 60 39 45 E8 30.39F Teterboro FAIR 60 33 36 SE9 30.38F $$ NYZ177-179-078>081-241600- Long Island New York CITY SKY/WX TMP DP RH WIND PRES REMARKS Jones Beach N/A 52 N/A N/A SE10 N/A Wantagh N/A 57 43 58 SE14 N/A Hempstead N/A 59 39 47 S9 30.42F Matinecock Pt N/A 46 N/A N/A E8 N/A Farmingdale FAIR 58 40 51 S8 30.41S MacArthur/ISP PTSUNNY 59 39 47 S13 30.41F Stony Brook N/A 61 30 31 S7 N/A Shirley FAIR 61 39 44 SE13 30.42F Mt Sinai Harb N/A N/A N/A N/A N6 N/A Westhampton FAIR 59 41 51 S12 30.43F East Hampton FAIR 57 42 56 SE9 30.42F Southold N/A 57 41 54 S10 N/A Montauk N/A 58 42 55 S5 30.44F $$ NYZ052-065-067-241600- Hudson Valley CITY SKY/WX TMP DP RH WIND PRES REMARKS White Plains FAIR 58 37 45 SE12 30.39F Larchmont Harb N/A 46 N/A N/A NE9 N/A Croton On Huds N/A 55 N/A N/A SE3 N/A Somers N/A 59 32 36 S10 N/A Brewster N/A 59 32 36 S5 N/A Newburgh MOSUNNY 61 32 33 SW12G21 30.38F Montgomery FAIR 62 30 29 S15 30.35F Otisville N/A 59 32 36 S10 N/A Warwick N/A 61 36 39 SE12 N/A Suffern N/A 59 34 38 SE5 N/A Poughkeepsie FAIR 61 26 26 S9G17 30.36F Albany FAIR 61 29 29 S9 30.35F $$ NJZ001-105-106-008-010-013-015-019>022-104-241600- New Jersey CITY SKY/WX TMP DP RH WIND PRES REMARKS Newark/Liberty PTSUNNY 60 39 45 E8 30.39F Teterboro FAIR 60 33 36 SE9 30.38F Caldwell FAIR 60 36 40 SE10 30.38F Somerville FAIR 63 42 46 SE10 30.35F Linden PTSUNNY 61 37 40 SE9 30.39S Perth Amboy N/A 57 N/A N/A E7 N/A Sussex FAIR 61 36 39 S10G20 30.36F Andover N/A 61 38 42 S10G17 30.36F Trenton FAIR 63 43 48 SE17G24 30.35F Millville PTSUNNY 61 43 51 SE16G26 30.33F Atlantic City FAIR 61 44 53 SE17G28 30.36S Wrightstown MOSUNNY 64 40 42 SE13G22 30.33 Toms River FAIR 62 38 40 SE18 30.38F Belmar FAIR 60 37 42 SE15G22 30.39F $$ PAZ047>061-062-071-241600- Eastern Pennsylvania CITY SKY/WX TMP DP RH WIND PRES REMARKS Philadelphia PTSUNNY 63 43 48 SE16G24 30.34F Allentown CLOUDY 63 39 41 SE10G20 30.34F Scranton FAIR 61 33 35 S9 30.31F $$ CTZ002-004>006-009-010-012-RIZ004-006-007-MAZ004-011-015-241600- Southern New England In CT CITY SKY/WX TMP DP RH WIND PRES REMARKS Bradley Intl PTSUNNY 63 26 24 SW12 30.39F Hartford FAIR 61 30 31 SW8 30.40F Danbury FAIR 59 30 33 S13 30.40S Wtrbury/Oxford FAIR 58 33 39 S12G18 30.40F Norwalk Harbor N/A 46 N/A N/A E8 N/A Bridgeport FAIR 51 43 74 E6 30.42F Meriden FAIR 59 30 33 SW13 30.40F New Haven FAIR 56 42 59 S5 30.42S Chester FAIR 61 34 36 S8 30.41F Groton FAIR 53 43 68 S7 30.42F Willimantic FAIR 61 29 29 S10 30.40F In RI CITY SKY/WX TMP DP RH WIND PRES REMARKS Providence PTSUNNY 61 38 42 S12 30.42F Block Island FAIR 54 44 69 S8 30.44F Westerly FAIR 57 42 57 S8 30.43F In MA CITY SKY/WX TMP DP RH WIND PRES REMARKS Boston PTSUNNY 62 30 29 W13 30.39F Worcester FAIR 59 26 28 SW13G21 30.38F Westfield FAIR 62 28 27 S10 30.37F Provincetown NOT AVBL Nantucket FAIR 52 45 77 S9 30.46R $$ ANZ330-335-338-340-345-350-353-355-241600- Coastal Marine Observations STATION/POSITION TIME SKY/WX TEMP WIND PRES VSBY WAVE AIR SEA DIR/SP/G HT/PER (UTC) (F) (DEG/KT/KT) (MB) (MI) (FT/S) NY Harb Entrance 1450 49 140/ 10/ 10 1029.5 1/ 8 20 S Fire Island 1450 48 45 140/ 6/ 8 1029.7 1/14 23 SSW Montauk P 1450 47 45 140/ 6/ 6 1030.7 1/ 9 15 E Barnegat Li 1430 46 N/A 2/ 8 Hudson Canyon 1450 50 47 110/ 8/ 8 1029.2 2/ 8 Kings Point 1448 46 N/A Execution Rocks NOT AVBL Western LI Sound NOT AVBL Central LI Sound 1430 45 60/ 6/ 6 N/A 0 Robbins Reef 1448 52 160/ 13/ 14 1029.8 $$ >>>>>>>>>>>>>>>>>>>>>>>>>>>> KEY <<<<<<<<<<<<<<<<<<<<<<<<<<< > < > SKY/WX - Sky Condition/Present Weather < > TMP - Temperature in Fahrenheit < > DP - Dew Point in Fahrenheit < > RH - Relative Humidity in Percent < > WIND - Direction (from) and Speed in MPH < > PRES - Mean Sea Level Pressure (inches of Hg) < > WCI - Wind Chill Index < > VSB - Visibility in Miles < > HX - Heat Index < > TC - Temperature in Celsius < > VRB - Varibale Wind Direction < > < >>>>>>>>>>>>>>>>>>>>>>>>>>>> KEY <<<<<<<<<<<<<<<<<<<<<<<<<<<

USA.gov is the U.S. government's official web portal to all federal, state and local government web resources and services.